K4FB Weather Reports


time (UTC)temp
C
wind
direction
speed
KPH
gust
KPH
rain 1hr
cm
rain 24hr
cm
rain mn
cm
humidity
%
barometer
mb
20260502170509 30 241 22.5 40.2 0.00 0.00 0.00 63 1012.1
20260502163020 31 202 16.1 37.0 0.00 0.00 0.00 61 1012.0
20260502162509 30 190 19.3 37.0 0.00 0.00 0.00 64 1012.0
20260502161006 29 189 12.9 24.1 0.00 0.00 0.00 67 1012.4
20260502160507 29 226 11.3 22.5 0.00 0.00 0.00 68 1012.3
20260502130503 23 213 9.7 20.9 0.00 0.00 0.00 87 1011.7
20260502123004 21 207 3.2 14.5 0.00 0.00 0.00 96 1011.6
20260502122003 21 160 8.0 16.1 0.00 0.00 0.00 96 1011.5
20260502121503 21 161 6.4 12.9 0.00 0.00 0.00 96 1011.3
20260502121005 21 206 6.4 14.5 0.00 0.00 0.00 96 1011.3
20260502120504 21 197 9.7 14.5 0.00 0.00 0.00 96 1011.4
20260502115504 20 181 9.7 16.1 0.00 0.00 0.00 96 1011.6
20260502115003 20 189 8.0 14.5 0.00 0.00 0.00 96 1011.5
20260502114508 20 184 4.8 14.5 0.00 0.00 0.00 96 1011.5
20260502114003 20 180 4.8 11.3 0.00 0.00 0.00 96 1011.6
20260502113503 20 180 3.2 8.0 0.00 0.00 0.00 96 1011.6
20260502113006 20 192 1.6 6.4 0.00 0.00 0.00 96 1011.6
20260502111508 20 188 1.6 4.8 0.00 0.00 0.00 96 1011.4
20260502111003 20 189 1.6 4.8 0.00 0.00 0.00 96 1011.5
20260502110503 20 187 0.0 4.8 0.00 0.00 0.00 96 1011.4
20260502105504 20 183 1.6 4.8 0.00 0.00 0.00 96 1011.3
20260502105003 20 182 0.0 3.2 0.00 0.00 0.00 96 1011.3
20260502104513 20 182 0.0 3.2 0.00 0.00 0.00 96 1011.2
20260502104003 20 182 0.0 3.2 0.00 0.00 0.00 96 1011.2
20260502103503 20 182 0.0 4.8 0.00 0.00 0.00 96 1011.0
20260502103011 19 182 0.0 4.8 0.00 0.00 0.00 96 1010.8
20260502102503 19 182 1.6 4.8 0.00 0.00 0.00 96 1010.7
20260502102003 19 181 0.0 4.8 0.00 0.00 0.00 96 1010.7
20260502101508 19 190 0.0 4.8 0.00 0.00 0.00 96 1010.9
20260502101002 18 181 1.6 4.8 0.00 0.00 0.00 95 1010.9
20260502100502 18 176 0.0 4.8 0.00 0.00 0.00 95 1011.0
20260502091508 18 231 0.0 0.0 0.00 0.00 0.00 95 1011.7
20260502091003 18 231 0.0 0.0 0.00 0.00 0.00 94 1011.7
20260502090502 18 231 0.0 0.0 0.00 0.00 0.00 94 1011.6
20260502071517 19 231 0.0 0.0 0.00 0.00 0.00 93 1012.0
20260502071004 20 231 0.0 0.0 0.00 0.00 0.00 93 1012.0
20260502070017 20 231 0.0 0.0 0.00 0.00 0.00 93 1012.1
20260502065507 20 231 0.0 0.0 0.00 0.00 0.00 93 1012.1
20260502065011 20 231 0.0 0.0 0.00 0.00 0.00 94 1012.2
20260502064517 20 231 0.0 0.0 0.00 0.00 0.00 93 1012.2
20260502064007 20 231 0.0 0.0 0.00 0.00 0.00 93 1012.2
20260502063504 20 231 0.0 0.0 0.00 0.00 0.00 93 1012.3
20260502063018 20 231 0.0 0.0 0.00 0.00 0.00 93 1012.3
20260502062509 20 231 0.0 0.0 0.00 0.00 0.00 93 1012.3
20260502062006 20 231 0.0 0.0 0.00 0.00 0.00 93 1012.3
20260502061515 20 231 0.0 0.0 0.00 0.00 0.00 93 1012.5
20260502061004 20 231 0.0 0.0 0.00 0.00 0.00 93 1012.6
20260502060507 20 231 0.0 0.0 0.00 0.00 0.00 92 1012.5
20260502060012 20 231 0.0 0.0 0.00 0.00 0.00 92 1012.6
20260502055505 20 231 0.0 0.0 0.00 0.00 0.00 93 1012.5
20260502055006 20 231 0.0 0.0 0.00 0.00 0.00 92 1012.4
20260502054516 20 231 0.0 0.0 0.00 0.00 0.00 92 1012.4
20260502053504 20 231 0.0 0.0 0.00 0.00 0.00 92 1012.4
20260502053016 20 231 0.0 1.6 0.00 0.00 0.00 92 1012.6
20260502052504 20 231 0.0 1.6 0.00 0.00 0.00 92 1012.7
20260502052008 20 231 0.0 1.6 0.00 0.00 0.00 92 1012.8
20260502051518 20 231 0.0 3.2 0.00 0.00 0.00 92 1012.8
20260502051003 20 231 0.0 3.2 0.00 0.00 0.00 92 1012.8
20260502050505 20 231 0.0 3.2 0.00 0.00 0.00 91 1012.7
20260502050005 20 231 0.0 1.6 0.00 0.00 0.00 90 1012.6
20260502045503 20 231 0.0 1.6 0.00 0.00 0.00 91 1012.6
20260502045009 20 231 0.0 1.6 0.00 0.00 0.00 91 1012.7
20260502044505 20 231 0.0 0.0 0.00 0.00 0.00 90 1012.8
20260502044002 21 231 0.0 0.0 0.00 0.00 0.00 90 1012.8
20260502043505 21 231 0.0 0.0 0.00 0.00 0.00 89 1012.8
20260502043014 21 231 0.0 0.0 0.00 0.00 0.00 89 1012.7
20260502041517 21 231 0.0 0.0 0.00 0.00 0.00 88 1012.8
20260502041004 21 231 0.0 0.0 0.00 0.00 0.00 87 1012.7
20260502040500 21 231 0.0 0.0 0.00 0.00 0.00 87 1012.8
20260502035503 21 231 0.0 3.2 0.00 0.00 0.00 87 1012.7
20260502035003 21 231 0.0 3.2 0.00 0.00 0.00 87 1012.7
20260502034507 22 231 0.0 3.2 0.00 0.00 0.00 86 1012.9
20260502034006 22 231 0.0 4.8 0.00 0.00 0.00 86 1012.9
20260502033504 22 231 0.0 4.8 0.00 0.00 0.00 86 1012.9
20260502033011 22 231 1.6 4.8 0.00 0.00 0.00 85 1012.8
20260502032506 22 230 1.6 3.2 0.00 0.00 0.00 85 1012.7
20260502032003 22 230 0.0 4.8 0.00 0.00 0.00 85 1012.6
20260502031503 22 229 1.6 4.8 0.00 0.00 0.00 84 1012.8
20260502030501 22 229 1.6 4.8 0.00 0.00 0.00 83 1012.7
20260502030022 22 225 1.6 6.4 0.00 0.00 0.00 83 1012.7
20260502025503 22 236 1.6 6.4 0.00 0.00 0.00 83 1012.7
20260502025003 23 236 3.2 6.4 0.00 0.00 0.00 83 1012.7
20260502024506 23 229 1.6 6.4 0.00 0.00 0.00 82 1012.8
20260502024003 23 237 1.6 6.4 0.00 0.00 0.00 82 1012.8
20260502023503 23 257 1.6 6.4 0.00 0.00 0.00 81 1012.8
20260502023008 23 236 3.2 8.0 0.00 0.00 0.00 81 1012.8
20260502022504 23 235 3.2 8.0 0.00 0.00 0.00 81 1012.7
20260502022006 23 235 3.2 9.7 0.00 0.00 0.00 80 1012.6
20260502021507 23 238 4.8 9.7 0.00 0.00 0.00 79 1012.7
20260502021004 23 244 3.2 9.7 0.00 0.00 0.00 78 1012.7
20260502020504 23 229 3.2 9.7 0.00 0.00 0.00 78 1012.7
20260502020008 23 262 1.6 9.7 0.00 0.00 0.00 77 1012.6
20260502015505 23 248 1.6 8.0 0.00 0.00 0.00 1012.6
20260502015006 23 240 3.2 9.7 0.00 0.00 0.00 75 1012.5
20260502014505 24 232 3.2 12.9 0.00 0.00 0.00 75 1012.4
20260502014002 24 234 4.8 12.9 0.00 0.00 0.00 75 1012.3
20260502013503 24 241 3.2 9.7 0.00 0.00 0.00 73 1012.2
20260502013021 24 236 1.6 9.7 0.00 0.00 0.00 71 1012.2
20260502012503 25 231 4.8 8.0 0.00 0.00 0.00 69 1012.1
20260502012004 25 238 4.8 8.0 0.00 0.00 0.00 68 1012.0
20260502011508 25 234 3.2 6.4 0.00 0.00 0.00 67 1012.0
20260502011004 25 236 3.2 9.7 0.00 0.00 0.00 66 1012.0
20260502010507 25 253 3.2 12.9 0.00 0.00 0.00 66 1012.0
20260502010012 25 253 3.2 12.9 0.00 0.00 0.00 65 1011.9
20260502005504 26 253 6.4 12.9 0.00 0.00 0.00 65 1011.9
20260502005003 26 271 4.8 12.9 0.00 0.00 0.00 63 1011.8
20260502004510 26 282 4.8 12.9 0.00 0.00 0.00 63 1011.9
20260502004007 26 283 1.6 11.3 0.00 0.00 0.00 63 1011.7
20260502003504 26 263 1.6 14.5 0.00 0.00 0.00 62 1011.6
20260502003006 26 264 6.4 16.1 0.00 0.00 0.00 61 1011.7
20260502002503 26 242 6.4 16.1 0.00 0.00 0.00 60 1011.5
20260502002003 27 252 6.4 14.5 0.00 0.00 0.00 59 1011.4
20260502001506 27 238 6.4 16.1 0.00 0.00 0.00 57 1011.4
20260502001003 27 264 8.0 17.7 0.00 0.00 0.00 57 1011.4
20260502000503 27 243 9.7 20.9 0.00 0.00 0.00 57 1011.3
20260502000017 27 270 11.3 20.9 0.00 0.00 0.00 57 1011.3
20260501235503 27 255 9.7 17.7 0.00 0.00 0.00 56 1011.2
20260501235003 28 265 8.0 16.1 0.00 0.00 0.00 56 1011.2
20260501234514 28 271 4.8 16.1 0.00 0.00 0.00 55 1011.1
20260501234004 28 241 8.0 16.1 0.00 0.00 0.00 54 1011.0
20260501233504 28 188 6.4 16.1 0.00 0.00 0.00 55 1010.9
20260501233015 28 259 8.0 14.5 0.00 0.00 0.00 54 1010.8
20260501232507 29 235 8.0 17.7 0.00 0.00 0.00 53 1010.8
20260501232003 29 249 8.0 19.3 0.00 0.00 0.00 52 1010.7
20260501231504 30 264 12.9 19.3 0.00 0.00 0.00 51 1010.7
20260501231004 30 218 9.7 20.9 0.00 0.00 0.00 50 1010.6
20260501230503 30 271 8.0 22.5 0.00 0.00 0.00 49 1010.6
20260501230008 31 238 8.0 22.5 0.00 0.00 0.00 47 1010.4
20260501225503 31 202 11.3 19.3 0.00 0.00 0.00 46 1010.3
20260501225005 31 209 9.7 19.3 0.00 0.00 0.00 44 1010.3
20260501224507 32 220 9.7 17.7 0.00 0.00 0.00 43 1010.3
20260501224008 32 223 8.0 14.5 0.00 0.00 0.00 42 1010.3
20260501223506 32 252 8.0 16.1 0.00 0.00 0.00 42 1010.3
20260501223006 32 194 11.3 17.7 0.00 0.00 0.00 41 1010.3
20260501222504 32 265 8.0 17.7 0.00 0.00 0.00 41 1010.4
20260501222008 32 234 11.3 16.1 0.00 0.00 0.00 40 1010.3
20260501221522 33 236 8.0 20.9 0.00 0.00 0.00 41 1010.2
20260501221005 33 229 8.0 20.9 0.00 0.00 0.00 40 1010.2
20260501220008 33 249 9.7 17.7 0.00 0.00 0.00 39 1010.1
20260501215504 33 234 9.7 17.7 0.00 0.00 0.00 40 1010.1
20260501215005 33 285 8.0 22.5 0.00 0.00 0.00 39 1010.0
20260501214512 33 227 8.0 22.5 0.00 0.00 0.00 41 1010.1
20260501214003 33 265 9.7 17.7 0.00 0.00 0.00 41 1010.2
20260501213507 33 190 9.7 17.7 0.00 0.00 0.00 41 1010.2
20260501213017 32 221 11.3 17.7 0.00 0.00 0.00 42 1010.2
20260501212507 32 217 9.7 19.3 0.00 0.00 0.00 42 1010.2
20260501212007 32 214 6.4 19.3 0.00 0.00 0.00 44 1010.2
20260501211514 32 198 9.7 22.5 0.00 0.00 0.00 42 1010.1
20260501211009 32 186 9.7 22.5 0.00 0.00 0.00 42 1010.2
20260501210509 32 237 9.7 22.5 0.00 0.00 0.00 43 1010.1
20260501205007 33 198 6.4 19.3 0.00 0.00 0.00 42 1010.2
20260501204510 33 197 12.9 22.5 0.00 0.00 0.00 41 1010.3
20260501204007 34 254 9.7 22.5 0.00 0.00 0.00 40 1010.3
20260501203503 34 232 12.9 19.3 0.00 0.00 0.00 40 1010.3
20260501203013 35 193 4.8 19.3 0.00 0.00 0.00 42 1010.2
20260501202504 35 203 11.3 25.7 0.00 0.00 0.00 39 1010.4
20260501202004 35 233 12.9 25.7 0.00 0.00 0.00 41 1010.5
20260501201520 35 240 12.9 25.7 0.00 0.00 0.00 41 1010.6
20260501201008 34 259 9.7 22.5 0.00 0.00 0.00 41 1010.6
20260501200508 34 250 12.9 30.6 0.00 0.00 0.00 40 1010.6
20260501200017 35 227 14.5 30.6 0.00 0.00 0.00 40 1010.7
20260501195509 35 247 6.4 24.1 0.00 0.00 0.00 40 1010.9
20260501195004 35 233 6.4 22.5 0.00 0.00 0.00 39 1011.0
20260501194515 35 250 8.0 22.5 0.00 0.00 0.00 40 1011.1
20260501194008 35 190 9.7 24.1 0.00 0.00 0.00 42 1011.1
20260501193504 34 192 6.4 24.1 0.00 0.00 0.00 45 1011.1
20260501193025 34 225 9.7 22.5 0.00 0.00 0.00 44 1011.3
20260501192506 34 238 12.9 22.5 0.00 0.00 0.00 41 1011.5
20260501192005 35 212 4.8 22.5 0.00 0.00 0.00 40 1011.7
20260501191517 35 229 12.9 22.5 0.00 0.00 0.00 42 1011.7
20260501191004 35 191 4.8 24.1 0.00 0.00 0.00 44 1011.8
20260501190509 35 222 8.0 24.1 0.00 0.00 0.00 43 1011.9
20260501190028 35 229 8.0 22.5 0.00 0.00 0.00 44 1012.0
20260501185008 34 248 12.9 20.9 0.00 0.00 0.00 43 1012.1
20260501184523 34 267 6.4 17.7 0.00 0.00 0.00 42 1012.1
20260501184009 34 227 6.4 19.3 0.00 0.00 0.00 41 1012.1
20260501183504 33 234 6.4 25.7 0.00 0.00 0.00 47 1012.1
20260501183020 33 213 14.5 25.7 0.00 0.00 0.00 43 1012.2
20260501182505 33 235 3.2 22.5 0.00 0.00 0.00 42 1012.2
20260501182007 33 244 9.7 22.5 0.00 0.00 0.00 45 1012.4
20260501181517 33 288 6.4 16.1 0.00 0.00 0.00 45 1012.3
20260501181006 32 273 1.6 19.3 0.00 0.00 0.00 49 1012.3
20260501180504 33 215 8.0 19.3 0.00 0.00 0.00 45 1012.5
20260501180012 33 231 4.8 17.7 0.00 0.00 0.00 45 1012.4
20260501175508 33 219 12.9 19.3 0.00 0.00 0.00 44 1012.5
20260501175008 33 209 8.0 19.3 0.00 0.00 0.00 46 1012.6
20260501174006 33 292 3.2 19.3 0.00 0.00 0.00 46 1012.8
20260501173507 33 334 4.8 24.1 0.00 0.00 0.00 45 1012.8